Location: Home
(42.5358°N, 72.7383°W)
Time: 05:08:46
(UTC-04:00)

COSMOS 2251 DEB - Pass Details

Date: 01 July 2022
Orbit: 769 x 1233 km, 74.1° (Epoch: 15 August)

Event Time Altitude Azimuth Distance (km) Brightness Sun altitude
Exits shadow 01:46:03 36° 143° (SE) 1,434 ? -23.3°
Maximum altitude 01:47:52 46° 101° (E) 1,264 ? -23.2°
Drops below altitude 10° 01:54:05 10° 31° (NNE) 2,855 ? -22.9°
Sets 01:56:56 0° 25° (NNE) 3,885 ? -22.8°
